When you browse on this site, cookies collect data to enhance your experience and personalize the content and advertising you see.
Visit our Privacy Policy to learn more. By continuing to use the site, you agree to this use of cookies and data.
  • în România
  • Lista ţărilor
  • Pe 7 zile
  • Temperatura apei
  • Hartă satelitară
  • Meteo pe hartă
  • Widget-uri
  • user-avatar
    Intrare

    Meteo pe oră la Kotiha

    Astăzi, 26 Aprilie, Vineri

    Timp Temperatura Precipitaţii Vânt Presiune Umiditate
    00:00 +9°C° 0 mm 2 m/s 754 mmHg 71%
    01:00 +8°C° 0 mm 2 m/s 754 mmHg 73%
    02:00 +8°C° 0 mm 1 m/s 754 mmHg 78%
    03:00 +8°C° 0 mm 1 m/s 754 mmHg 79%
    04:00 +8°C° 0 mm 1 m/s 754 mmHg 79%
    05:00 +8°C° 0 mm 1 m/s 754 mmHg 80%
    06:00 +8°C° 0 mm 2 m/s 754 mmHg 73%
    07:00 +10°C° 0 mm 2 m/s 754 mmHg 66%
    08:00 +13°C° 0 mm 2 m/s 754 mmHg 57%
    09:00 +15°C° 0 mm 2 m/s 754 mmHg 52%
    10:00 +16°C° 0 mm 2 m/s 753 mmHg 47%
    11:00 +17°C° 0 mm 2 m/s 753 mmHg 42%
    12:00 +18°C° 0 mm 2 m/s 753 mmHg 40%
    13:00 +20°C° 0 mm 1 m/s 753 mmHg 38%
    14:00 +21°C° 0 mm 1 m/s 752 mmHg 36%
    15:00 +20°C° 0 mm 1 m/s 752 mmHg 38%
    16:00 +20°C° 0 mm 1 m/s 751 mmHg 40%
    17:00 +20°C° 0 mm 1 m/s 751 mmHg 42%
    18:00 +16°C° 0 mm 1 m/s 750 mmHg 49%
    19:00 +14°C° 0 mm 2 m/s 750 mmHg 56%
    20:00 +12°C° 0 mm 2 m/s 750 mmHg 63%
    21:00 +10°C° 0 mm 2 m/s 750 mmHg 64%
    22:00 +10°C° 0 mm 2 m/s 749 mmHg 65%
    23:00 +9°C° 0 mm 2 m/s 749 mmHg 66%

    Mâine, 27 Aprilie, Sâmbătă

    Timp Temperatura Precipitaţii Vânt Presiune Umiditate
    00:00 +9°C° 0 mm 2 m/s 749 mmHg 69%
    01:00 +9°C° 0 mm 2 m/s 748 mmHg 73%
    02:00 +8°C° 0 mm 2 m/s 748 mmHg 77%
    03:00 +8°C° 0 mm 2 m/s 748 mmHg 80%
    04:00 +9°C° 0 mm 2 m/s 747 mmHg 83%
    05:00 +10°C° 0 mm 1 m/s 747 mmHg 86%
    06:00 +13°C° 0 mm 1 m/s 746 mmHg 75%
    07:00 +15°C° 0 mm 1 m/s 746 mmHg 64%
    08:00 +19°C° 0 mm 1 m/s 746 mmHg 53%
    09:00 +19°C° 0 mm 2 m/s 745 mmHg 47%
    10:00 +20°C° 0 mm 2 m/s 745 mmHg 41%
    11:00 +21°C° 0 mm 3 m/s 745 mmHg 35%
    12:00 +21°C° 0 mm 3 m/s 744 mmHg 35%
    13:00 +22°C° 0 mm 3 m/s 744 mmHg 34%
    14:00 +22°C° 0 mm 3 m/s 744 mmHg 33%
    15:00 +20°C° 0.4 mm 3 m/s 744 mmHg 44%
    16:00 +17°C° 0.4 mm 4 m/s 743 mmHg 55%
    17:00 +14°C° 0.4 mm 5 m/s 743 mmHg 66%
    18:00 +13°C° 0.2 mm 4 m/s 744 mmHg 71%
    19:00 +11°C° 0.2 mm 4 m/s 745 mmHg 77%
    20:00 +10°C° 0.2 mm 3 m/s 745 mmHg 82%
    21:00 +7°C° 0 mm 4 m/s 746 mmHg 80%
    22:00 +6°C° 0 mm 4 m/s 747 mmHg 78%
    23:00 +3°C° 0 mm 5 m/s 747 mmHg 75%

    Poimâine, 28 Aprilie, Duminică

    Timp Temperatura Precipitaţii Vânt Presiune Umiditate
    00:00 +3°C° 0 mm 4 m/s 748 mmHg 75%
    01:00 +1°C° 0 mm 4 m/s 749 mmHg 74%
    02:00 0°C° 0 mm 4 m/s 749 mmHg 73%
    03:00 0°C° 0 mm 4 m/s 750 mmHg 71%
    04:00 -1°C° 0 mm 4 m/s 750 mmHg 69%
    05:00 -1°C° 0 mm 4 m/s 751 mmHg 67%
    06:00 0°C° 0 mm 4 m/s 751 mmHg 61%
    07:00 +1°C° 0 mm 4 m/s 752 mmHg 54%
    08:00 +3°C° 0 mm 4 m/s 752 mmHg 48%
    09:00 +4°C° 0 mm 4 m/s 752 mmHg 46%
    10:00 +5°C° 0 mm 4 m/s 753 mmHg 44%
    11:00 +6°C° 0 mm 4 m/s 753 mmHg 42%
    12:00 +6°C° 0 mm 4 m/s 753 mmHg 40%
    13:00 +7°C° 0 mm 4 m/s 753 mmHg 38%
    14:00 +7°C° 0 mm 4 m/s 753 mmHg 36%
    15:00 +7°C° 0 mm 4 m/s 753 mmHg 36%
    16:00 +6°C° 0 mm 4 m/s 753 mmHg 35%
    17:00 +6°C° 0 mm 4 m/s 753 mmHg 35%
    18:00 +4°C° 0 mm 3 m/s 754 mmHg 40%
    19:00 +4°C° 0 mm 2 m/s 754 mmHg 45%
    20:00 +2°C° 0 mm 2 m/s 755 mmHg 50%
    21:00 +2°C° 0 mm 2 m/s 755 mmHg 53%
    22:00 +1°C° 0 mm 2 m/s 755 mmHg 56%
    23:00 -1°C° 0 mm 2 m/s 756 mmHg 58%

    29 Aprilie, Luni

    Timp Temperatura Precipitaţii Vânt Presiune Umiditate
    00:00 -1°C° 0 mm 2 m/s 756 mmHg 60%
    01:00 0°C° 0 mm 1 m/s 756 mmHg 61%
    02:00 0°C° 0 mm 1 m/s 757 mmHg 63%
    03:00 0°C° 0 mm 1 m/s 757 mmHg 60%
    04:00 0°C° 0 mm 1 m/s 757 mmHg 58%
    05:00 0°C° 0 mm 1 m/s 757 mmHg 56%
    06:00 +2°C° 0 mm 1 m/s 757 mmHg 49%
    07:00 +4°C° 0 mm 1 m/s 757 mmHg 41%
    08:00 +6°C° 0 mm 1 m/s 757 mmHg 33%
    09:00 +7°C° 0 mm 1 m/s 757 mmHg 31%
    10:00 +8°C° 0 mm 1 m/s 756 mmHg 29%
    11:00 +10°C° 0 mm 1 m/s 756 mmHg 27%
    12:00 +10°C° 0 mm 1 m/s 756 mmHg 26%
    13:00 +11°C° 0 mm 1 m/s 755 mmHg 25%
    14:00 +11°C° 0 mm 1 m/s 755 mmHg 25%
    15:00 +11°C° 0 mm 1 m/s 754 mmHg 25%
    16:00 +10°C° 0 mm 1 m/s 754 mmHg 26%
    17:00 +10°C° 0 mm 1 m/s 754 mmHg 27%
    18:00 +8°C° 0 mm 1 m/s 754 mmHg 32%
    19:00 +6°C° 0 mm 1 m/s 754 mmHg 37%
    20:00 +5°C° 0 mm 1 m/s 753 mmHg 41%
    21:00 +4°C° 0 mm 1 m/s 753 mmHg 45%
    22:00 +3°C° 0 mm 1 m/s 753 mmHg 48%
    23:00 +2°C° 0 mm 1 m/s 753 mmHg 52%

    30 Aprilie, Marţi

    Timp Temperatura Precipitaţii Vânt Presiune Umiditate
    00:00 +2°C° 0 mm 1 m/s 753 mmHg 54%
    01:00 +1°C° 0 mm 1 m/s 753 mmHg 57%
    02:00 +1°C° 0 mm 1 m/s 753 mmHg 59%
    03:00 +1°C° 0 mm 1 m/s 753 mmHg 59%
    04:00 +1°C° 0 mm 1 m/s 752 mmHg 58%
    05:00 +2°C° 0 mm 1 m/s 752 mmHg 58%
    06:00 +4°C° 0 mm 1 m/s 752 mmHg 51%
    07:00 +6°C° 0 mm 1 m/s 752 mmHg 44%
    08:00 +8°C° 0 mm 1 m/s 752 mmHg 37%
    09:00 +9°C° 0 mm 1 m/s 751 mmHg 34%
    10:00 +9°C° 0 mm 2 m/s 751 mmHg 31%
    11:00 +10°C° 0 mm 2 m/s 750 mmHg 28%
    12:00 +12°C° 0 mm 2 m/s 750 mmHg 28%
    13:00 +12°C° 0 mm 2 m/s 750 mmHg 27%
    14:00 +13°C° 0 mm 2 m/s 749 mmHg 26%
    15:00 +12°C° 0 mm 2 m/s 749 mmHg 29%
    16:00 +12°C° 0 mm 2 m/s 749 mmHg 31%
    17:00 +12°C° 0 mm 2 m/s 748 mmHg 34%
    18:00 +9°C° 0 mm 2 m/s 748 mmHg 44%
    19:00 +7°C° 0 mm 2 m/s 749 mmHg 54%
    20:00 +5°C° 0 mm 2 m/s 749 mmHg 64%
    21:00 +5°C° 0 mm 1 m/s 749 mmHg 70%
    22:00 +5°C° 0 mm 1 m/s 749 mmHg 76%
    23:00 +4°C° 0 mm 1 m/s 749 mmHg 82%

    1 Mai, Miercuri

    Timp Temperatura Precipitaţii Vânt Presiune Umiditate
    00:00 +3°C° 0 mm 1 m/s 748 mmHg 84%
    01:00 +3°C° 0 mm 1 m/s 748 mmHg 86%
    02:00 +2°C° 0 mm 1 m/s 748 mmHg 88%
    03:00 +2°C° 0 mm 1 m/s 748 mmHg 86%
    04:00 +2°C° 0 mm 1 m/s 748 mmHg 85%
    05:00 +2°C° 0 mm 0 m/s 748 mmHg 83%
    06:00 +5°C° 0 mm 1 m/s 748 mmHg 73%
    07:00 +7°C° 0 mm 1 m/s 748 mmHg 63%
    08:00 +10°C° 0 mm 1 m/s 747 mmHg 52%
    09:00 +11°C° 0 mm 1 m/s 747 mmHg 46%
    10:00 +12°C° 0 mm 1 m/s 747 mmHg 40%
    11:00 +13°C° 0 mm 2 m/s 746 mmHg 34%
    12:00 +13°C° 0 mm 2 m/s 746 mmHg 34%
    13:00 +14°C° 0 mm 2 m/s 745 mmHg 33%
    14:00 +14°C° 0 mm 2 m/s 744 mmHg 32%
    15:00 +14°C° 0 mm 2 m/s 744 mmHg 33%
    16:00 +14°C° 0 mm 2 m/s 743 mmHg 34%
    17:00 +14°C° 0 mm 2 m/s 743 mmHg 35%
    18:00 +12°C° 0 mm 2 m/s 743 mmHg 41%
    19:00 +9°C° 0 mm 2 m/s 742 mmHg 46%
    20:00 +7°C° 0 mm 2 m/s 742 mmHg 52%
    21:00 +7°C° 0 mm 2 m/s 742 mmHg 53%
    22:00 +6°C° 0 mm 2 m/s 741 mmHg 55%
    23:00 +5°C° 0 mm 3 m/s 741 mmHg 56%
    Arată mai mult